Regional Weather Roundup
Issued by NWS

Home | Current Version | Previous Version | Text Only | Print | Product List | Glossary On
Versions: 1 2 3 4 5 6 7 8 9 10 11 12 13 14 15 16 17 18 19 20 21 22 23 24 25 26 27 28 29 30 31 32 33 34 35 36 37 38 39 40 41 42 43 44 45 46 47 48 49 50
000
ASUS43 KBIS 231510
RWRND

NORTH DAKOTA REGIONAL WEATHER ROUNDUP
NATIONAL WEATHER SERVICE BISMARCK ND
1000 AM CDT SAT JUL 23 2016

NOTE: "FAIR" INDICATES FEW OR NO CLOUDS BELOW 12,000 FEET WITH NO
SIGNIFICANT WEATHER AND/OR OBSTRUCTIONS TO VISIBILITY.


NDZ001>003-009>011-017-231600-
NORTHWEST NORTH DAKOTA

CITY           SKY/WX    TMP DP  RH WIND       PRES   REMARKS
WILLISTON      SUNNY     75  60  59 W14       29.84R
MINOT          CLOUDY    69  64  84 S6        29.77F THUNDER
MINOT AFB      CLOUDY    66  63  89 S5        29.76S
$$

NDZ018>021-031>035-040>046-231600-
SOUTHWEST NORTH DAKOTA

CITY           SKY/WX    TMP DP  RH WIND       PRES   REMARKS
BISMARCK       PTSUNNY   69  64  84 NE17G23   29.78F
DICKINSON      CLOUDY    66  62  87 N7        29.85R
GARRISON         N/A     69  65  86 E12       29.77F
HETTINGER ARPT MOSUNNY   75  62  64 NW23      29.84R
$$

NDZ004>008-012>016-024-026-027-054-231600-
NORTHEAST NORTH DAKOTA

CITY           SKY/WX    TMP DP  RH WIND       PRES   REMARKS
GRAND FORKS    CLOUDY    73  65  75 NE8       29.80F
GRND FRKS AFB  CLOUDY    71  65  80 NE5       29.81F
DEVILS LAKE    RAIN      66  64  93 NW15      29.85F
$$

NDZ022-023-025-028>030-036>039-047>053-231600-
SOUTHEAST NORTH DAKOTA

CITY           SKY/WX    TMP DP  RH WIND       PRES   REMARKS
FARGO          CLOUDY    79  67  66 SE12      29.76F
JAMESTOWN      CLOUDY    74  69  85 NE5       29.75F
$$




USA.gov is the U.S. government's official web portal to all federal, state and local government web resources and services.